Temperature
2 3 2 2 2 2 1 1 1 2 3 3 2 1 1 1 0 -0 -0 -1 -0 -1 -1 -1 -1 -1 -1 -1 -1 -1 -1 -1 -1 -1 -1 -1 -1 -1 -1 -1 -0 -0 -0 -0
1 2 2 2 2 2 1 1 1 1 2 1 2 1 1 0 -0 -1 -1 -1 -1 -1 -2 -2 -1 -2 -2 -2 -2 -2 -2 -2 -2 -2 -2 -2 -1 -1 -1 -1 -1 -1 -1 -1
1 2 1 0 0 1 1 0 0 0 0 0 -0 -1 -0 -1 -1 -2 -2 -2 -2 -2 -2 -2 -2 -2 -2 -2 -2 -2 -2 -2 -2 -2 -2 -2 -2 -2 -2 -2 -2 -2 -2 -2
-0 0 -0 1 0 0 0 -0 -1 -1 -1 -1 -1 -1 -1 -1 -2 -2 -3 -3 -3 -3 -3 -3 -3 -3 -3 -3 -3 -3 -3 -3 -3 -3 -3 -3 -3 -3 -2 -2 -2 -2 -2 -2
-1 -1 0 0 -1 -1 -1 -2 -2 -2 -2 -2 -2 -2 -2 -2 -2 -3 -3 -3 -3 -3 -3 -3 -3 -3 -3 -3 -4 -4 -4 -4 -4 -3 -3 -3 -3 -3 -3 -3 -3 -3 -3 -3
-1 -1 -0 0 -2 -1 -2 -2 -3 -3 -3 -3 -3 -4 -4 -3 -3 -4 -4 -4 -4 -4 -4 -4 -4 -4 -4 -4 -4 -4 -4 -4 -4 -4 -4 -4 -4 -4 -4 -4 -4 -4 -4 -4
-2 -1 -1 -2 -3 -2 -2 -2 -3 -3 -3 -4 -5 -5 -4 -4 -5 -5 -5 -5 -5 -5 -5 -4 -4 -5 -5 -5 -5 -5 -5 -5 -5 -5 -5 -5 -5 -5 -5 -5 -5 -5 -4 -4
-2 -2 -2 -3 -3 -3 -3 -3 -3 -4 -4 -5 -5 -5 -5 -5 -5 -5 -5 -5 -5 -5 -5 -5 -5 -5 -5 -5 -5 -6 -6 -5 -5 -5 -5 -5 -5 -5 -5 -5 -5 -5 -5 -5
-3 -2 -3 -3 -3 -3 -3 -4 -4 -5 -5 -5 -6 -6 -6 -7 -6 -6 -6 -6 -6 -6 -6 -6 -6 -6 -6 -6 -6 -6 -6 -6 -6 -6 -6 -6 -6 -6 -6 -6 -6 -6 -6 -6
-4 -4 -4 -3 -3 -4 -4 -5 -5 -5 -6 -6 -7 -7 -7 -7 -7 -7 -7 -7 -7 -7 -7 -6 -6 -6 -7 -7 -7 -7 -7 -7 -7 -7 -7 -7 -7 -7 -7 -7 -7 -7 -7 -7
-5 -5 -5 -4 -4 -5 -5 -5 -6 -6 -6 -7 -7 -8 -8 -8 -8 -8 -8 -8 -8 -8 -8 -7 -7 -7 -7 -7 -8 -8 -7 -7 -7 -7 -7 -7 -7 -7 -7 -7 -7 -7 -7 -7
-5 -6 -6 -6 -6 -6 -6 -6 -7 -7 -7 -7 -8 -8 -8 -8 -8 -8 -8 -8 -8 -8 -8 -8 -8 -8 -8 -8 -8 -8 -8 -8 -8 -8 -8 -8 -8 -8 -8 -8 -8 -8 -8 -8
-6 -6 -6 -6 -7 -7 -7 -7 -7 -8 -8 -8 -9 -9 -9 -9 -9 -9 -9 -9 -9 -9 -9 -9 -9 -9 -9 -9 -9 -9 -9 -9 -9 -9 -9 -9 -9 -9 -9 -8 -9 -9 -8 -8
-7 -7 -7 -8 -8 -8 -8 -8 -9 -9 -9 -9 -10 -10 -10 -10 -9 -9 -9 -10 -10 -10 -9 -9 -9 -9 -9 -9 -9 -9 -9 -9 -9 -9 -9 -9 -9 -9 -9 -9 -9 -9 -9 -9
-8 -8 -9 -9 -9 -9 -9 -9 -10 -10 -10 -10 -10 -10 -11 -10 -10 -10 -10 -10 -10 -10 -10 -10 -10 -10 -10 -10 -10 -10 -10 -10 -10 -10 -10 -10 -10 -10 -10 -10 -10 -10 -10 -9
-9 -9 -10 -10 -10 -10 -10 -11 -11 -11 -11 -11 -11 -11 -11 -11 -11 -11 -11 -11 -11 -11 -11 -11 -11 -11 -11 -11 -11 -11 -10 -11 -11 -11 -11 -11 -11 -11 -11 -11 -11 -10 -10 -10
-10 -11 -11 -11 -11 -11 -12 -12 -12 -12 -12 -12 -12 -12 -12 -12 -12 -12 -11 -11 -12 -12 -12 -12 -12 -12 -12 -12 -11 -11 -11 -11 -11 -11 -11 -11 -11 -11 -11 -11 -11 -11 -11 -11
-11 -11 -11 -12 -12 -12 -12 -12 -12 -12 -13 -13 -13 -13 -13 -13 -12 -12 -12 -12 -12 -12 -12 -12 -12 -12 -12 -12 -12 -12 -12 -12 -12 -12 -12 -12 -12 -12 -12 -12 -12 -12 -11 -11
-12 -12 -12 -12 -12 -12 -13 -13 -13 -13 -13 -13 -13 -13 -13 -13 -13 -13 -13 -13 -13 -13 -13 -13 -13 -13 -13 -13 -13 -13 -13 -13 -13 -13 -13 -13 -13 -13 -13 -13 -13 -12 -12 -12
-12 -12 -12 -13 -13 -13 -13 -13 -13 -13 -13 -14 -14 -14 -14 -14 -14 -14 -14 -14 -14 -14 -14 -13 -13 -13 -13 -13 -13 -13 -13 -13 -13 -13 -13 -13 -13 -13 -13 -13 -13 -13 -13 -13
-13 -13 -13 -13 -13 -14 -14 -14 -14 -14 -14 -14 -14 -14 -14 -14 -14 -14 -14 -14 -14 -14 -14 -14 -14 -14 -14 -14 -14 -14 -14 -14 -14 -14 -14 -14 -14 -14 -14 -14 -14 -14 -14 -13
-13 -13 -14 -14 -14 -14 -14 -14 -14 -14 -14 -14 -15 -15 -15 -15 -15 -15 -15 -15 -15 -15 -15 -15 -14 -14 -15 -15 -14 -14 -14 -15 -15 -15 -15 -14 -14 -14 -14 -14 -14 -14 -14 -14
-14 -14 -14 -14 -14 -14 -15 -15 -15 -15 -15 -15 -15 -15 -15 -15 -15 -16 -15 -15 -15 -15 -15 -15 -15 -15 -15 -15 -15 -15 -15 -15 -15 -15 -15 -15 -15 -15 -15 -15 -15 -15 -15 -15
-14 -14 -14 -15 -15 -15 -15 -15 -15 -15 -15 -15 -16 -16 -16 -16 -16 -16 -16 -16 -16 -16 -16 -16 -15 -15 -16 -15 -15 -15 -15 -15 -16 -15 -15 -15 -15 -15 -15 -15 -15 -15 -15 -15
-14 -15 -15 -15 -15 -15 -15 -15 -15 -16 -16 -16 -16 -16 -16 -16 -16 -16 -16 -16 -16 -16 -16 -16 -16 -16 -16 -16 -16 -16 -16 -16 -16 -16 -16 -16 -16 -16 -16 -16 -16 -16 -15 -15
-15 -15 -15 -15 -15 -16 -16 -16 -16 -16 -16 -16 -16 -16 -16 -16 -17 -17 -17 -17 -17 -17 -17 -16 -16 -16 -16 -16 -16 -16 -16 -16 -16 -16 -16 -16 -16 -16 -16 -16 -16 -16 -16 -16
-15 -15 -15 -16 -16 -16 -16 -16 -16 -16 -17 -17 -17 -17 -17 -17 -17 -17 -17 -17 -17 -17 -17 -17 -17 -17 -17 -17 -17 -17 -17 -17 -17 -17 -17 -17 -17 -17 -16 -16 -16 -16 -16 -16
Wind_Speed
9 8 6 8 9 9 11 11 10 11 12 9 5 4 4 3 3 3 3 3 3 3 2 2 2 2 2 2 2 2 3 3 3 2 2 2 2 2 2 2 2 2 3 3
7 8 8 11 11 11 12 11 13 13 13 6 4 4 4 4 3 4 4 5 4 4 3 3 3 3 2 2 2 3 3 3 3 2 2 2 2 2 2 2 2 2 3 3
5 4 5 9 9 10 8 7 8 13 12 6 6 6 6 5 3 4 5 5 5 4 4 4 3 3 3 3 2 3 3 3 3 3 3 3 2 2 3 3 2 3 3 3
4 3 8 6 1 5 8 9 8 8 5 4 5 6 4 2 2 4 5 5 5 4 4 4 3 3 2 2 2 3 3 3 3 3 3 2 2 3 2 2 3 3 4 3
3 5 9 4 2 2 4 7 5 7 6 6 6 5 3 2 3 4 4 5 4 4 4 3 2 2 2 2 2 3 3 3 3 3 3 3 3 3 2 2 2 3 3 3
5 5 7 4 1 1 1 5 2 1 4 5 4 4 5 5 5 5 5 4 4 4 3 2 2 1 1 2 2 3 3 3 3 3 3 4 4 3 2 2 3 3 3 3
8 7 7 3 2 2 3 5 2 1 2 2 3 4 5 5 4 4 4 5 4 4 3 3 2 1 2 2 3 3 2 2 3 3 3 4 3 2 2 2 2 3 3 3
6 7 7 2 3 4 4 0 1 2 2 2 3 4 4 4 4 5 5 5 4 4 4 4 2 1 2 3 3 2 1 2 2 2 2 2 2 2 2 2 2 3 3 3
6 6 2 3 3 2 1 1 2 2 2 2 3 4 4 4 4 4 4 4 4 3 4 4 4 2 2 3 2 1 1 1 1 2 2 2 3 3 3 3 2 3 3 3
4 5 3 2 1 1 1 1 1 2 2 2 4 4 4 4 4 4 4 4 4 4 4 5 5 4 3 3 2 1 1 1 1 2 2 2 2 2 2 2 2 2 2 3
6 5 3 2 1 1 2 2 2 2 2 3 4 5 4 5 5 4 4 4 4 3 4 5 5 4 4 3 2 1 1 1 1 1 2 1 1 2 2 3 4 4 3 3
6 3 2 2 1 2 1 2 3 4 4 3 3 4 4 4 4 4 4 4 4 4 4 4 5 5 5 4 2 1 1 2 1 1 1 1 1 1 2 3 4 5 5 5
3 2 2 2 1 2 1 3 3 3 4 4 3 3 4 4 3 3 4 4 4 4 4 4 4 5 5 4 3 2 2 2 1 1 1 1 1 1 1 2 3 4 5 5
1 1 2 1 1 2 2 2 3 3 3 3 3 3 3 3 3 4 4 4 4 4 4 4 4 5 5 4 3 2 2 2 2 1 1 1 1 2 2 2 2 2 4 5
1 1 2 2 2 2 2 2 3 3 3 3 3 3 3 4 4 5 4 4 4 4 4 4 4 5 5 4 3 2 2 2 1 1 1 1 1 1 2 2 2 2 2 3
1 1 0 1 2 2 2 2 2 3 4 4 4 4 4 4 4 4 4 3 3 4 5 4 4 5 5 4 3 2 2 3 2 1 1 1 1 1 2 2 2 2 2 2
1 1 1 2 3 3 3 2 3 3 3 4 4 4 4 4 4 4 4 4 4 4 4 4 5 5 4 4 3 2 2 2 3 2 1 1 1 1 2 2 2 2 2 3
2 2 2 2 3 3 3 3 2 3 3 4 4 3 3 3 4 5 5 5 4 4 4 4 5 5 4 4 3 2 2 2 1 1 1 1 2 1 1 2 2 2 2 3
0 0 1 1 1 1 2 3 3 3 3 3 3 3 3 3 4 4 4 4 4 4 5 5 7 5 4 4 4 2 2 2 1 1 1 2 2 1 1 2 2 2 2 2
2 2 2 2 2 1 2 2 2 2 3 3 3 3 3 4 4 4 4 3 3 4 4 5 4 3 4 4 4 1 1 2 2 2 2 1 2 2 2 2 2 2 2 2
1 2 2 2 2 2 2 2 2 2 3 3 2 3 4 4 4 3 3 4 4 4 4 6 4 3 3 4 4 1 1 1 2 2 2 2 2 2 2 2 2 3 3 3
1 1 1 1 2 2 2 2 2 2 3 3 3 3 3 4 4 4 3 3 4 7 5 3 3 5 5 4 1 1 1 2 2 2 2 2 2 2 2 2 2 3 3 3
0 1 1 1 2 2 3 2 2 2 2 3 3 3 4 4 3 3 5 4 4 6 5 3 5 7 6 3 2 2 2 2 2 2 2 2 2 2 3 3 3 3 3 3
1 1 1 1 1 1 2 3 3 2 2 3 3 3 3 3 3 3 3 6 8 7 4 6 8 7 5 3 2 2 2 2 2 2 2 2 2 2 3 3 3 3 3 3
0 1 1 1 1 2 2 2 2 2 2 2 2 3 3 2 3 4 4 4 7 7 4 6 8 7 4 2 2 2 2 2 2 2 2 2 2 3 3 3 3 3 3 3
1 1 1 1 1 1 2 2 2 2 2 3 3 3 3 3 3 3 3 4 5 6 4 3 4 4 3 2 2 2 2 3 3 3 2 3 3 3 3 3 4 4 4 4
0 1 1 1 1 1 2 2 2 3 3 3 4 4 3 3 3 4 4 4 4 3 3 3 3 3 3 3 3 3 3 2 3 3 3 3 3 3 4 4 4 4 5 5
Wind_Direction
266 278 265 255 248 229 223 227 239 253 259 267 274 281 290 299 306 315 315 310 289 274 272 279 275 262 243 220 204 192 188 203 221 224 220 208 210 211 213 216 223 215 206 211
268 259 262 269 255 239 236 240 248 263 268 271 283 303 305 303 306 302 301 298 297 299 287 276 269 264 258 234 215 200 202 213 220 222 221 214 206 199 202 212 216 216 212 211
264 268 289 261 236 225 229 229 233 248 257 284 298 300 299 299 295 297 298 299 297 291 282 281 277 269 256 252 232 211 215 215 213 213 223 223 214 208 210 210 210 222 229 224
268 282 247 245 205 208 226 244 234 246 269 296 291 294 300 303 316 313 313 308 295 293 295 291 287 285 273 253 226 213 221 224 219 214 221 221 214 220 228 225 223 228 233 234
232 251 266 255 229 200 222 266 250 245 272 292 302 305 294 331 344 321 315 311 307 299 300 293 284 279 277 264 235 217 220 227 226 215 213 212 218 227 238 235 239 240 236 231
228 241 249 244 197 181 159 267 297 249 276 299 327 294 281 331 335 328 332 333 329 327 324 312 303 297 262 258 249 238 234 234 229 219 212 215 219 229 238 234 234 238 245 240
230 244 261 251 204 130 192 253 324 345 293 294 266 256 298 327 333 335 336 336 341 339 333 323 322 317 263 262 261 265 255 240 231 222 216 219 220 224 229 229 226 235 241 245
216 231 250 188 141 184 224 354 25 0 348 316 291 301 317 325 328 333 338 341 344 342 334 330 333 314 279 277 283 287 269 242 235 223 215 213 203 219 220 216 220 231 232 245
206 222 241 165 184 204 56 10 1 353 341 322 304 303 309 316 318 321 327 330 334 335 334 335 336 327 294 298 302 292 250 240 227 213 208 208 201 206 208 206 216 231 226 237
248 252 239 216 218 299 354 327 348 348 325 314 296 298 305 309 312 316 320 322 327 332 329 325 331 335 316 313 321 307 251 242 227 205 200 208 209 208 203 207 218 230 235 240
256 269 287 253 248 323 337 342 332 325 318 307 299 299 305 307 309 312 316 318 320 319 314 315 325 329 327 321 313 289 280 258 248 205 188 193 213 220 218 221 220 224 228 232
236 236 230 249 37 9 333 312 313 314 310 313 299 293 302 302 303 309 312 317 320 320 319 322 327 328 331 328 315 278 280 277 256 208 199 199 204 263 274 256 253 253 251 250
232 290 275 261 335 16 336 329 334 322 305 306 314 312 307 305 311 314 316 319 316 315 317 322 326 328 333 336 329 306 279 279 281 245 218 224 222 215 263 306 293 273 261 258
240 286 275 264 292 344 352 348 341 330 327 323 324 325 321 317 319 319 313 312 314 318 322 326 327 328 333 332 326 316 303 293 296 271 236 230 233 240 241 247 273 287 283 273
265 237 244 295 325 339 9 4 345 334 339 338 335 329 326 322 316 314 316 323 329 330 330 332 330 330 335 331 324 317 310 306 302 294 279 266 262 259 255 254 258 269 285 281
324 338 284 278 291 323 349 341 318 313 323 324 327 325 320 317 314 315 324 334 332 322 322 325 324 324 329 328 322 320 309 306 314 307 293 294 282 267 267 264 264 264 263 263
174 265 277 290 295 303 303 296 292 299 310 312 312 317 325 327 326 325 328 330 322 314 315 322 320 323 328 327 320 315 310 303 309 318 315 300 289 276 268 263 256 265 274 272
214 239 245 258 273 289 303 311 308 309 305 304 311 320 325 322 318 319 325 332 335 331 330 332 325 328 330 325 323 319 316 311 311 312 314 306 301 291 281 275 268 271 283 290
26 336 337 332 316 305 306 310 315 317 316 316 317 315 313 312 312 314 322 330 329 324 325 323 325 336 328 320 330 336 333 326 324 323 321 297 309 319 307 291 289 292 291 291
43 41 31 11 7 350 314 311 318 323 323 326 325 323 323 318 316 318 319 310 302 304 310 318 323 324 319 313 327 338 332 324 314 309 308 306 302 302 299 295 294 292 292 289
29 28 22 8 351 341 317 308 314 317 323 331 325 315 313 315 317 318 318 315 320 324 322 324 334 322 314 315 321 335 321 313 308 303 296 293 294 295 294 296 297 294 291 292
16 24 6 356 349 337 330 326 315 313 323 327 325 320 319 321 325 322 308 302 311 324 331 322 326 319 321 322 325 317 312 310 306 306 305 301 295 292 292 292 293 293 293 289
352 11 1 343 327 319 328 333 322 316 314 314 316 316 313 309 313 316 314 317 319 321 331 321 320 322 328 345 349 335 327 319 313 306 302 301 299 295 292 291 292 291 291 289
0 358 336 328 327 333 332 328 325 318 305 300 302 306 310 318 320 313 299 314 324 324 325 320 327 329 339 3 347 337 328 314 306 306 306 304 302 303 301 298 297 295 292 290
327 304 307 326 324 316 312 316 322 321 325 327 328 326 318 310 306 313 316 316 322 328 330 324 327 330 345 343 332 325 320 310 304 308 306 304 303 303 302 301 298 298 296 293
259 276 280 284 292 301 305 311 315 317 325 327 327 329 328 323 315 314 317 316 317 328 334 325 321 326 330 323 319 314 311 310 315 316 309 303 298 296 295 294 292 289 287 284
297 306 311 317 316 309 305 305 302 304 311 312 313 317 322 325 325 325 325 326 325 322 318 318 319 318 316 315 315 314 312 308 304 301 300 297 295 291 291 287 285 282 280 278
Height
1477 1474 1474 1474 1473 1474 1476 1474 1474 1465 1462 1458 1459 1459 1458 1458 1456 1455 1454 1453 1452 1452 1451 1450 1450 1450 1450 1450 1451 1451 1451 1452 1453 1454 1455 1455 1456 1457 1458 1460 1461 1462 1463 1465
1477 1472 1472 1470 1467 1468 1468 1468 1466 1462 1459 1456 1456 1456 1456 1455 1455 1453 1452 1451 1450 1449 1448 1447 1446 1446 1446 1446 1446 1447 1447 1448 1449 1450 1450 1450 1451 1452 1454 1455 1456 1457 1458 1460
1475 1470 1471 1469 1463 1462 1462 1461 1462 1460 1456 1454 1455 1454 1454 1453 1453 1452 1450 1449 1447 1446 1445 1444 1444 1443 1442 1442 1442 1443 1443 1443 1444 1445 1446 1446 1447 1448 1449 1450 1451 1452 1454 1455
1477 1475 1476 1458 1455 1455 1456 1456 1456 1454 1453 1453 1453 1452 1452 1451 1451 1449 1448 1446 1445 1443 1442 1441 1440 1440 1439 1439 1439 1439 1439 1440 1440 1441 1442 1442 1443 1443 1444 1445 1446 1447 1448 1450
1476 1473 1461 1456 1455 1455 1456 1455 1453 1452 1452 1452 1451 1450 1449 1449 1448 1446 1445 1444 1442 1440 1439 1438 1437 1436 1436 1435 1435 1435 1435 1436 1436 1437 1437 1438 1438 1439 1440 1441 1441 1442 1444 1445
1473 1470 1462 1453 1454 1452 1455 1456 1451 1450 1450 1450 1449 1451 1448 1446 1445 1443 1442 1440 1439 1437 1436 1435 1434 1433 1432 1431 1431 1431 1431 1432 1432 1433 1433 1433 1434 1435 1436 1437 1438 1439 1440 1441
1469 1466 1458 1454 1452 1452 1458 1453 1450 1449 1448 1448 1449 1449 1447 1443 1441 1440 1438 1437 1435 1434 1433 1432 1431 1430 1429 1428 1428 1428 1428 1428 1428 1428 1429 1429 1430 1431 1432 1433 1434 1435 1436 1437
1465 1462 1459 1452 1451 1454 1452 1449 1449 1448 1447 1447 1446 1445 1444 1441 1439 1437 1435 1434 1433 1431 1430 1429 1428 1427 1425 1425 1425 1424 1424 1424 1424 1424 1424 1425 1426 1427 1428 1429 1430 1431 1432 1433
1457 1455 1450 1448 1448 1448 1448 1448 1447 1447 1446 1445 1444 1443 1441 1439 1437 1435 1434 1432 1430 1429 1427 1426 1425 1424 1423 1422 1421 1421 1420 1419 1420 1420 1421 1421 1422 1422 1423 1425 1425 1426 1427 1428
1452 1448 1447 1446 1446 1446 1446 1446 1445 1444 1444 1443 1442 1440 1439 1437 1435 1433 1431 1430 1428 1426 1424 1423 1422 1421 1420 1419 1418 1417 1416 1416 1416 1416 1417 1418 1418 1419 1420 1421 1421 1422 1423 1424
1449 1446 1445 1443 1443 1444 1443 1443 1442 1442 1441 1440 1439 1437 1436 1434 1433 1431 1429 1427 1426 1424 1422 1420 1419 1418 1417 1416 1415 1414 1413 1413 1412 1413 1413 1414 1415 1416 1416 1417 1418 1418 1419 1420
1444 1443 1443 1442 1441 1441 1441 1440 1440 1439 1438 1437 1436 1434 1433 1432 1430 1428 1427 1425 1423 1421 1419 1418 1416 1415 1414 1413 1412 1411 1410 1410 1409 1410 1410 1411 1411 1412 1412 1414 1414 1415 1416 1417
1440 1439 1440 1439 1439 1438 1438 1437 1437 1436 1435 1434 1433 1432 1430 1428 1427 1426 1424 1422 1420 1419 1417 1415 1414 1413 1412 1410 1410 1409 1408 1407 1407 1407 1407 1408 1408 1408 1408 1409 1410 1411 1412 1413
1437 1437 1437 1436 1436 1435 1435 1434 1433 1433 1432 1431 1430 1429 1427 1425 1424 1423 1421 1420 1418 1417 1415 1413 1412 1411 1409 1408 1407 1406 1406 1405 1405 1405 1405 1405 1405 1405 1405 1405 1405 1406 1408 1409
1434 1434 1434 1433 1433 1432 1431 1431 1430 1429 1428 1428 1427 1426 1424 1423 1421 1420 1419 1418 1416 1414 1413 1411 1410 1408 1407 1406 1405 1404 1404 1403 1402 1402 1402 1402 1402 1402 1402 1402 1402 1402 1403 1404
1431 1431 1431 1431 1430 1429 1428 1428 1427 1426 1426 1425 1424 1423 1422 1421 1419 1418 1417 1415 1413 1412 1410 1409 1408 1406 1405 1404 1403 1402 1401 1401 1400 1400 1400 1400 1400 1400 1399 1399 1399 1399 1399 1400
1428 1427 1427 1427 1427 1426 1426 1425 1425 1424 1423 1422 1421 1420 1419 1418 1417 1415 1414 1413 1412 1410 1409 1407 1406 1404 1403 1402 1401 1400 1399 1399 1398 1398 1397 1397 1397 1397 1397 1396 1396 1396 1396 1396
1425 1425 1425 1425 1425 1424 1423 1423 1422 1421 1420 1420 1419 1418 1417 1415 1414 1413 1412 1411 1409 1408 1407 1406 1404 1403 1401 1400 1399 1398 1397 1397 1396 1395 1395 1395 1395 1394 1394 1394 1393 1393 1392 1393
1423 1423 1423 1423 1423 1422 1421 1421 1420 1419 1418 1418 1417 1416 1415 1414 1413 1411 1410 1408 1407 1405 1404 1403 1402 1400 1399 1398 1397 1396 1395 1395 1394 1394 1393 1393 1393 1392 1392 1391 1391 1390 1390 1390
1422 1422 1421 1421 1421 1420 1419 1419 1418 1417 1417 1416 1415 1414 1413 1412 1411 1410 1408 1407 1406 1404 1403 1401 1400 1398 1397 1396 1395 1394 1393 1392 1392 1391 1391 1391 1390 1390 1389 1389 1388 1387 1387 1387
1420 1420 1420 1419 1419 1418 1418 1417 1416 1415 1415 1414 1413 1412 1411 1410 1409 1408 1406 1405 1404 1402 1401 1399 1398 1396 1395 1394 1393 1392 1391 1390 1390 1389 1389 1389 1388 1387 1387 1386 1385 1385 1384 1384
1419 1419 1418 1418 1417 1417 1416 1415 1414 1414 1413 1412 1411 1410 1409 1408 1406 1405 1404 1403 1402 1400 1399 1397 1396 1394 1393 1392 1391 1390 1389 1388 1388 1387 1387 1386 1386 1385 1384 1384 1383 1382 1382 1381
1418 1417 1417 1417 1416 1415 1415 1414 1413 1412 1411 1410 1409 1408 1407 1406 1405 1403 1402 1401 1399 1398 1397 1395 1394 1393 1392 1390 1389 1388 1387 1386 1386 1385 1385 1384 1383 1383 1382 1381 1380 1380 1379 1378
1417 1416 1416 1415 1415 1414 1413 1412 1411 1410 1410 1408 1408 1406 1405 1404 1402 1401 1400 1399 1397 1396 1394 1393 1392 1390 1389 1388 1387 1386 1385 1384 1383 1383 1382 1382 1381 1380 1379 1378 1377 1377 1376 1375
1415 1415 1414 1414 1413 1412 1411 1411 1410 1409 1408 1407 1406 1405 1403 1402 1401 1399 1398 1396 1395 1393 1391 1390 1389 1388 1386 1385 1384 1383 1383 1382 1381 1380 1380 1379 1378 1377 1377 1376 1375 1374 1373 1372
1413 1413 1413 1412 1412 1411 1410 1409 1408 1407 1405 1404 1403 1402 1401 1400 1399 1397 1395 1394 1392 1391 1389 1388 1387 1385 1384 1383 1382 1381 1380 1379 1379 1378 1377 1376 1375 1375 1374 1373 1372 1371 1370 1369
1412 1412 1411 1411 1410 1409 1408 1407 1406 1405 1404 1403 1401 1400 1399 1398 1396 1395 1393 1392 1390 1389 1387 1386 1384 1383 1382 1381 1379 1379 1378 1377 1376 1375 1375 1374 1373 1372 1371 1370 1369 1367 1366 1365